Weather in Gvardeysk

Russia / Kaliningrad Oblast     54°38′51″N   21°04′16″E
temp.,
°C
wind,
m/s
gust,
m/s
humid.,
%
clouds,
%
prec.,
mm/h
press.,
hPa
HPBL,
m
23 october, sat
sat2323:00+7w61375100 0.3 1001710
02:00+6w613735 1.0 1003523
05:00+6w614745 0.3 1005524
08:00+7w51281100 0.5 1007495
11:00+10wnw586598 1.4 10091042
14:00+10nw7106636 2.9 10131413
17:00+7nw61171100 0.5 1017571
20:00+7nw6106999 0.8 1020660
24 october, sun
sun2423:00+5nw5107196 0.2 1023352
02:00+6nw486941 0.3 1024357
05:00+6wnw3768100 0.0 1026235
08:00+4w2376100 0.0 102850
11:00+8wsw3464100 0.0 1030448
14:00+9wsw3456100 0.0 1029866
17:00+7sw3371100 0.0 102958
20:00+5ssw377999 0.0 1029118
25 october, mon
mon2523:00+4ssw388890 0.0 1029164
02:00+3ssw399269 0.0 1028179
05:00+3s39929 0.0 1027182
08:00+2s4119261 0.0 1026228
11:00+8s610615 0.0 1025443
14:00+12s611485 0.0 1023773
17:00+9s510576 0.0 1022276
20:00+6s4126925 0.0 1021280
26 october, tue
tue2623:00+5s41173100 0.0 1020212
02:00+4ssw3876100 0.0 1020146
05:00+4ssw3780100 0.0 1019117
08:00+4ssw3784100 0.0 1019140
11:00+9sw476699 0.0 1019343
14:00+12wsw476568 0.0 1019642
17:00+9wsw3880100 0.0 1019346
20:00+8sw3887100 0.0 1019197
27 october, wed
wed2723:00+9sw498725 0.0 1019250
02:00+7wsw399614 0.0 1019236
05:00+8wsw4995100 0.0 1019390
08:00+9wsw5119499 0.0 1019446
11:00+11w598097 0.6 1020729
14:00+11w5981100 0.9 1021610
17:00+10w4983100 0.0 1022419
20:00+10wsw4984100 0.0 1023437